Regional Weather Roundup
Issued by NWS Boston, MA

Home | Current Version | Previous Version | Text Only | Print | Product List | Glossary On
Versions: 1 2 3 4 5 6 7 8 9 10 11 12 13 14 15 16 17 18 19 20 21 22 23 24 25 26 27 28 29 30 31 32 33 34 35 36 37 38 39 40 41 42 43 44 45 46 47 48 49 50
000
ASUS41 KBOX 282310
RWRBOX

REGIONAL WEATHER ROUNDUP
NATIONAL WEATHER SERVICE TAUNTON MA
600 PM EST WED JAN 28 2015

NOTE:  "FAIR" INDICATES FEW OR NO CLOUDS BELOW 12,000 FEET WITH NO
SIGNIFICANT WEATHER AND/OR OBSTRUCTIONS TO VISIBILITY.  THE FOLLOWING
OBSERVATION LOCATIONS DO NOT REPORT PRESENT WEATHER...PROVINCETOWN...
SMITHFIELD...BLOCK ISLAND...KEENE...AND OXFORD.

MAZALL-290000-
EASTERN MASSACHUSETTS

CITY           SKY/WX    TMP DP  RH WIND       PRES   REMARKS
BOSTON         PTCLDY    23   9  55 NW8       30.09R WCI  14
BEVERLY        CLEAR     21   6  52 NW12      30.08R WCI   9
LAWRENCE       CLEAR     21   7  54 NW8       30.10R WCI  11
BEDFORD        CLEAR     20   7  57 W5        30.09R WCI  13
BLUE HILL        N/A     19   8  62 MISG      30.03R
NORWOOD        CLEAR     22   7  52 CALM      30.09R
MARSHFIELD     CLEAR     23  12  63 W3        30.10R
PLYMOUTH       CLEAR     13   7  77 CALM      30.08R
TAUNTON        CLEAR     16   7  67 CALM      30.09R
NEW BEDFORD    CLEAR     16   8  71 CALM      30.08R
$$

MAZALL-290000-
CAPE COD AND THE ISLANDS

CITY           SKY/WX    TMP DP  RH WIND       PRES   REMARKS
FALMOUTH       CLEAR     14   7  73 CALM      30.08R HAZE
HYANNIS        CLOUDY    22  11  62 W7        30.06R WCI  13
CHATHAM        CLOUDY    24  15  68 NW6       30.07R WCI  17
PROVINCETOWN   CLOUDY    27  14  59 NW15G23   30.07R WCI  15
NANTUCKET      CLOUDY    24  15  68 NW12      30.07R WCI  13
MARTHAS VNYRD  CLEAR     21   6  52 N5        30.09R WCI  15
$$

MAZALL-290000-
CENTRAL AND WESTERN MASSACHUSETTS

CITY           SKY/WX    TMP DP  RH WIND       PRES   REMARKS
WORCESTER      CLEAR     20   5  52 NW17G24   30.03R WCI   5
FITCHBURG      CLEAR     23   3  42 NW9       30.09R WCI  13
ORANGE         CLEAR     20   1  43 N9        30.11R WCI   9
SPRINGFIELD    CLEAR     21   4  47 N12       30.12R WCI   9
WESTFIELD      CLEAR     23   2  40 NW14      30.13R WCI  11
NORTH ADAMS    FAIR      15   2  56 NW6       30.17R WCI   6
PITTSFIELD     CLEAR     16   3  56 CALM      30.10R
$$

RIZALL-290000-
RHODE ISLAND

CITY           SKY/WX    TMP DP  RH WIND       PRES   REMARKS
PROVIDENCE     CLEAR     24   8  50 N6        30.10R WCI  17
NEWPORT        CLEAR     22   9  57 NW5       30.09R WCI  16
BLOCK ISLAND   CLEAR     25   9  50 N12       30.08R WCI  14
SMITHFIELD     CLEAR     19   5  53 NW5       30.06R WCI  13
WESTERLY       CLEAR     22   8  55 N6        30.11R WCI  14
$$

CTZALL-290000-
CONNECTICUT

CITY           SKY/WX    TMP DP  RH WIND       PRES   REMARKS
BRADLEY INTL   CLEAR     25   3  38 N13       30.12R WCI  14
HARTFORD       CLEAR     26   5  40 NW7       30.14R WCI  18
BRIDGEPORT     CLEAR     26   5  40 NW12G20   30.14R WCI  16
DANBURY        CLEAR     25   0  33 N8G18     30.15R WCI  16
GROTON         CLEAR     23   9  55 NW9       30.10R WCI  13
NEW HAVEN      CLEAR     26   6  42 NW13      30.13R WCI  15
CHESTER        FAIR      27   9  46 N14       30.09R WCI  15
MERIDEN        CLEAR     25   5  42 NW13      30.14R WCI  14
WILLIMANTIC    CLEAR     23   8  52 NW6       30.10R WCI  16
$$

MEZ002-015-021-024-NHZ003-005-008-011-012-014-VTZ005-008-290000-
NORTHERN NEW ENGLAND

CITY           SKY/WX    TMP DP  RH WIND       PRES   REMARKS
PORTLAND ME    CLEAR     24   9  52 NW12      30.06R WCI  13
BANGOR ME      PTCLDY    13   6  74 NW5       30.01R WCI   5
CONCORD NH     CLEAR     20   3  48 NW8       30.09R WCI  10
MANCHESTER NH  PTCLDY    21   5  50 NW16G23   30.07R WCI   7
NASHUA NH        N/A     22   5  47 NW12      30.10R WCI  11
PORTSMOUTH NH  PTCLDY    20   7  57 NW8       30.06R WCI  10
JAFFREY NH     CLEAR     19   1  45 VRB3      30.06R
KEENE NH       CLEAR     19   1  45 CALM      30.12R
BURLINGTON VT  CLEAR     14  -8  37 E3        30.23R
MT. WASHINGTON PTCLDY     3 -11  51 N46G59      N/A  WCI -26
$$

NYZ052-076-290000-
EASTERN NEW YORK

CITY           SKY/WX    TMP DP  RH WIND       PRES   REMARKS
ALBANY         CLEAR     19  -1  41 N8        30.22R WCI   9
NEW YORK CITY  CLEAR     32  11  41 N9        30.16R WCI  24
$$

ANZALL-290000-
MARINE OBSERVATIONS

STATION/POSITION TIME  TEMP    WIND        PRES    VSBY  WAVE
                       AIR SEA DIR/SP/G                  HT/PER
                 (UTC) (F)     (DEG/KT/KT) (MB)    (MI)  (FT/S)
BOSTON BUOY      2250   26 40  320/ 17/ 21 1018.1R         7/10
BUZZARDS BAY     2200           10/  6/  8 1018.3R
NANTUCKET SOUND  NOT AVBL
MASS BAY-STELLWA 2204   23 41  320/ 16/ 21   N/A    1 7/8  8/11
ISLE OF SHOALS   2300   23     300/ 19/ 22 1017.3R
S OF BLOCK IS    2208      43                N/A           4/12
$$

......................KEY.........................
  SKY/WX - SKY CONDITION/PRESENT WEATHER
  TMP    - TEMPERATURE IN FAHRENHEIT
  DWPT   - DEWPOINT IN FAHRENHEIT
  RH     - RELATIVE HUMIDITY IN PERCENT
  WIND   - DIRECTION AND SPEED IN MPH
  PRES   - MEAN SEA LEVEL PRESSURE IN INCHES OF HG
  WCI    - WIND CHILL INDEX
  VSB    - VISIBILITY IN MILES
  HX     - HEAT INDEX
  TC     - TEMPERATURE IN CELSIUS
  VRB    - VARIABLE WIND DIRECTION
  N/A    - NOT AVAILABLE


USA.gov is the U.S. government's official web portal to all federal, state and local government web resources and services.